• Em Portugal
  • Lista de países
  • Para 7 dias
  • Temperatura da água
  • Mapas de satélite
  • Mapa do tempo
  • Widgets de tempo
  • user-avatar
    Iniciar Sessão

    Previsão horária em Yakovlevka

    Hoje, 15 Agosto, Quarta-feira

    Tempo Temperatura Precipitação Vento Pressão Humidade
    00:00 +18°C° 0 mm 0 m/s 746 mmHg 95%
    01:00 +20°C° 1,5 mm 1 m/s 746 mmHg 96%
    02:00 +20°C° 1,5 mm 1 m/s 746 mmHg 96%
    03:00 +19°C° 0 mm 1 m/s 746 mmHg 97%
    04:00 +19°C° 3,2 mm 1 m/s 746 mmHg 97%
    05:00 +19°C° 3,2 mm 1 m/s 746 mmHg 97%
    06:00 +19°C° 3,2 mm 1 m/s 746 mmHg 98%
    07:00 +19°C° 1,9 mm 1 m/s 747 mmHg 97%
    08:00 +20°C° 1,9 mm 1 m/s 747 mmHg 96%
    09:00 +20°C° 1,9 mm 1 m/s 747 mmHg 96%
    10:00 +21°C° 0,3 mm 1 m/s 747 mmHg 94%
    11:00 +22°C° 0,3 mm 1 m/s 747 mmHg 92%
    12:00 +22°C° 0,3 mm 1 m/s 747 mmHg 90%
    13:00 +22°C° 0,2 mm 1 m/s 747 mmHg 91%
    14:00 +22°C° 0,2 mm 1 m/s 746 mmHg 92%
    15:00 +22°C° 0,2 mm 1 m/s 746 mmHg 92%
    16:00 +22°C° 0,7 mm 1 m/s 746 mmHg 93%
    17:00 +21°C° 0,7 mm 1 m/s 747 mmHg 95%
    18:00 +21°C° 0,7 mm 1 m/s 747 mmHg 96%
    19:00 +20°C° 2,2 mm 1 m/s 747 mmHg 97%
    20:00 +20°C° 2,2 mm 1 m/s 747 mmHg 97%
    21:00 +19°C° 2,2 mm 1 m/s 747 mmHg 98%
    22:00 +19°C° 2 mm 1 m/s 747 mmHg 98%
    23:00 +19°C° 2 mm 1 m/s 747 mmHg 98%

    Amanhã, 16 Agosto, Quinta-feira

    Tempo Temperatura Precipitação Vento Pressão Humidade
    00:00 +19°C° 2 mm 1 m/s 747 mmHg 98%
    01:00 +18°C° 0,5 mm 1 m/s 747 mmHg 98%
    02:00 +18°C° 0,5 mm 1 m/s 747 mmHg 98%
    03:00 +17°C° 0,5 mm 2 m/s 747 mmHg 98%
    04:00 +16°C° 0 mm 2 m/s 747 mmHg 98%
    05:00 +16°C° 0 mm 2 m/s 747 mmHg 98%
    06:00 +16°C° 0 mm 2 m/s 746 mmHg 98%
    07:00 +16°C° 0 mm 2 m/s 747 mmHg 98%
    08:00 +17°C° 0 mm 2 m/s 747 mmHg 97%
    09:00 +17°C° 0 mm 2 m/s 747 mmHg 96%
    10:00 +18°C° 0,3 mm 2 m/s 747 mmHg 95%
    11:00 +18°C° 0,3 mm 3 m/s 747 mmHg 93%
    12:00 +19°C° 0,3 mm 3 m/s 747 mmHg 92%
    13:00 +19°C° 0,8 mm 3 m/s 747 mmHg 91%
    14:00 +19°C° 0,8 mm 3 m/s 747 mmHg 91%
    15:00 +20°C° 0,8 mm 3 m/s 747 mmHg 90%
    16:00 +19°C° 0,6 mm 2 m/s 747 mmHg 91%
    17:00 +19°C° 0,6 mm 2 m/s 747 mmHg 93%
    18:00 +19°C° 0,6 mm 2 m/s 747 mmHg 94%
    19:00 +19°C° 0,2 mm 1 m/s 748 mmHg 95%
    20:00 +16°C° 0,2 mm 1 m/s 748 mmHg 96%
    21:00 +15°C° 0,2 mm 1 m/s 749 mmHg 97%
    22:00 +15°C° 0 mm 1 m/s 749 mmHg 97%
    23:00 +14°C° 0 mm 1 m/s 749 mmHg 97%

    Depois de amanhã, 17 Agosto, Sexta-feira

    Tempo Temperatura Precipitação Vento Pressão Humidade
    00:00 +14°C° 0 mm 1 m/s 749 mmHg 98%
    01:00 +14°C° 0 mm 1 m/s 749 mmHg 98%
    02:00 +14°C° 0 mm 1 m/s 749 mmHg 98%
    03:00 +13°C° 0 mm 0 m/s 749 mmHg 98%
    04:00 +13°C° 0 mm 0 m/s 749 mmHg 98%
    05:00 +13°C° 0 mm 0 m/s 749 mmHg 98%
    06:00 +13°C° 0 mm 0 m/s 749 mmHg 98%
    07:00 +15°C° 0 mm 1 m/s 749 mmHg 95%
    08:00 +16°C° 0 mm 1 m/s 749 mmHg 92%
    09:00 +18°C° 0 mm 1 m/s 749 mmHg 89%
    10:00 +20°C° 0 mm 1 m/s 749 mmHg 81%
    11:00 +22°C° 0 mm 1 m/s 749 mmHg 73%
    12:00 +23°C° 0 mm 1 m/s 749 mmHg 65%
    13:00 +24°C° 0 mm 1 m/s 748 mmHg 61%
    14:00 +25°C° 0 mm 1 m/s 748 mmHg 58%
    15:00 +25°C° 0 mm 1 m/s 747 mmHg 54%
    16:00 +24°C° 0 mm 1 m/s 747 mmHg 62%
    17:00 +23°C° 0 mm 1 m/s 747 mmHg 69%
    18:00 +22°C° 0 mm 1 m/s 747 mmHg 76%
    19:00 +20°C° 0 mm 1 m/s 748 mmHg 80%
    20:00 +16°C° 0 mm 0 m/s 748 mmHg 84%
    21:00 +15°C° 0 mm 0 m/s 748 mmHg 88%
    22:00 +16°C° 0 mm 1 m/s 748 mmHg 89%
    23:00 +15°C° 0 mm 1 m/s 748 mmHg 89%

    18 Agosto, Sábado

    Tempo Temperatura Precipitação Vento Pressão Humidade
    00:00 +15°C° 0 mm 1 m/s 748 mmHg 89%
    01:00 +15°C° 0 mm 1 m/s 748 mmHg 91%
    02:00 +14°C° 0 mm 1 m/s 747 mmHg 93%
    03:00 +14°C° 0 mm 1 m/s 747 mmHg 95%
    04:00 +14°C° 0 mm 1 m/s 747 mmHg 94%
    05:00 +14°C° 0 mm 1 m/s 747 mmHg 93%
    06:00 +14°C° 0 mm 1 m/s 747 mmHg 93%
    07:00 +17°C° 0 mm 2 m/s 747 mmHg 83%
    08:00 +19°C° 0 mm 2 m/s 747 mmHg 73%
    09:00 +23°C° 0 mm 2 m/s 746 mmHg 63%
    10:00 +24°C° 0 mm 2 m/s 746 mmHg 60%
    11:00 +25°C° 0 mm 3 m/s 746 mmHg 58%
    12:00 +26°C° 0 mm 3 m/s 745 mmHg 56%
    13:00 +26°C° 0,2 mm 3 m/s 745 mmHg 62%
    14:00 +26°C° 0,2 mm 3 m/s 744 mmHg 68%
    15:00 +26°C° 0,2 mm 3 m/s 744 mmHg 75%
    16:00 +24°C° 1,3 mm 2 m/s 744 mmHg 82%
    17:00 +23°C° 1,3 mm 2 m/s 744 mmHg 88%
    18:00 +21°C° 1,3 mm 1 m/s 744 mmHg 95%
    19:00 +21°C° 1,4 mm 1 m/s 744 mmHg 96%
    20:00 +20°C° 1,4 mm 1 m/s 744 mmHg 97%
    21:00 +19°C° 1,4 mm 2 m/s 744 mmHg 97%
    22:00 +19°C° 0,3 mm 2 m/s 744 mmHg 97%
    23:00 +19°C° 0,3 mm 2 m/s 743 mmHg 98%

    19 Agosto, Domingo

    Tempo Temperatura Precipitação Vento Pressão Humidade
    00:00 +19°C° 0,3 mm 2 m/s 743 mmHg 98%
    01:00 +19°C° 0,1 mm 1 m/s 743 mmHg 98%
    02:00 +19°C° 0,1 mm 1 m/s 743 mmHg 98%
    03:00 +19°C° 0,1 mm 1 m/s 743 mmHg 98%
    04:00 +19°C° 0 mm 1 m/s 743 mmHg 98%
    05:00 +19°C° 0 mm 1 m/s 743 mmHg 98%
    06:00 +19°C° 0 mm 1 m/s 743 mmHg 98%
    07:00 +21°C° 0 mm 1 m/s 744 mmHg 94%
    08:00 +22°C° 0 mm 1 m/s 744 mmHg 91%
    09:00 +24°C° 0 mm 1 m/s 744 mmHg 87%
    10:00 +25°C° 0 mm 2 m/s 744 mmHg 80%
    11:00 +26°C° 0 mm 2 m/s 744 mmHg 73%
    12:00 +27°C° 0 mm 2 m/s 744 mmHg 66%
    13:00 +28°C° 0 mm 2 m/s 744 mmHg 63%
    14:00 +28°C° 0 mm 2 m/s 743 mmHg 61%
    15:00 +29°C° 0 mm 2 m/s 743 mmHg 58%
    16:00 +27°C° 0 mm 2 m/s 743 mmHg 65%
    17:00 +26°C° 0 mm 1 m/s 743 mmHg 72%
    18:00 +25°C° 0 mm 1 m/s 743 mmHg 78%
    19:00 +24°C° 0 mm 1 m/s 744 mmHg 82%
    20:00 +22°C° 0 mm 1 m/s 744 mmHg 86%
    21:00 +20°C° 0 mm 1 m/s 744 mmHg 90%
    22:00 +20°C° 0 mm 1 m/s 745 mmHg 91%
    23:00 +19°C° 0 mm 1 m/s 745 mmHg 92%

    20 Agosto, Segunda-feira

    Tempo Temperatura Precipitação Vento Pressão Humidade
    00:00 +19°C° 0 mm 1 m/s 745 mmHg 93%
    01:00 +19°C° 0 mm 1 m/s 745 mmHg 93%
    02:00 +19°C° 0 mm 1 m/s 745 mmHg 94%
    03:00 +18°C° 0 mm 1 m/s 745 mmHg 94%
    04:00 +19°C° 0 mm 1 m/s 745 mmHg 93%
    05:00 +19°C° 0 mm 1 m/s 745 mmHg 92%
    06:00 +19°C° 0 mm 1 m/s 745 mmHg 92%
    07:00 +22°C° 0 mm 1 m/s 745 mmHg 83%
    08:00 +24°C° 0 mm 1 m/s 745 mmHg 75%
    09:00 +27°C° 0 mm 1 m/s 745 mmHg 67%
    10:00 +28°C° 0 mm 1 m/s 745 mmHg 63%
    11:00 +30°C° 0 mm 1 m/s 745 mmHg 58%
    12:00 +31°C° 0 mm 1 m/s 745 mmHg 54%
    13:00 +31°C° 0,1 mm 1 m/s 744 mmHg 55%
    14:00 +31°C° 0,1 mm 1 m/s 744 mmHg 56%
    15:00 +31°C° 0,1 mm 1 m/s 744 mmHg 57%
    16:00 +29°C° 0,4 mm 1 m/s 744 mmHg 67%
    17:00 +28°C° 0,4 mm 1 m/s 744 mmHg 78%
    18:00 +26°C° 0,4 mm 1 m/s 744 mmHg 88%
    19:00 +25°C° 0,3 mm 1 m/s 744 mmHg 90%
    20:00 +23°C° 0,3 mm 1 m/s 744 mmHg 91%
    21:00 +22°C° 0,3 mm 1 m/s 744 mmHg 93%
    22:00 +22°C° 0 mm 1 m/s 744 mmHg 94%
    23:00 +21°C° 0 mm 1 m/s 744 mmHg 95%
    Mostrar mais